Location: ???????
(55.9142°N, 37.8256°E)
Time: 03:40:03
(UTC+00:00)

ATLAS 2AS CENTAUR R/B - Pass Details

Date: 14 April 2024
Orbit: 1015 x 1196 km, 63.7° (Epoch: 20 May)

Event Time Altitude Azimuth Distance (km) Brightness Sun altitude
Rises 01:10:20 0° 190° (S) 4,056 5.3 -10.2°
Reaches altitude 10° 01:13:19 10° 182° (S) 3,079 4.8 -9.9°
Maximum altitude 01:19:49 35° 120° (ESE) 1,750 4.1 -9.1°
Drops below altitude 10° 01:26:08 10° 57° (ENE) 2,986 6.8 -8.3°
Sets 01:28:59 0° 49° (NE) 3,919 7.8 -8.0°
